TimeCDT,TemperatureF,Dew PointF,Humidity,Sea Level PressureIn,VisibilityMPH,Wind Direction,Wind SpeedMPH,Gust SpeedMPH,PrecipitationIn,Events,Conditions,WindDirDegrees,DateUTC
12:51 AM,60.1,50.0,69,30.03,10.0,NNW,3.5,-,N/A,,Clear,330,2012-04-22 05:51:00
1:51 AM,62.1,48.0,60,30.02,10.0,NNE,5.8,-,N/A,,Clear,30,2012-04-22 06:51:00
2:51 AM,57.9,48.0,70,30.01,10.0,North,3.5,-,N/A,,Clear,360,2012-04-22 07:51:00
3:51 AM,57.9,46.9,67,30.01,10.0,North,6.9,-,N/A,,Clear,10,2012-04-22 08:51:00
4:51 AM,55.9,48.0,75,30.01,10.0,Calm,Calm,-,N/A,,Clear,0,2012-04-22 09:51:00
5:51 AM,53.1,48.0,83,30.02,10.0,West,3.5,-,N/A,,Clear,280,2012-04-22 10:51:00
6:51 AM,53.1,48.0,83,30.04,10.0,NW,3.5,-,N/A,,Clear,320,2012-04-22 11:51:00
7:51 AM,57.2,50.0,77,30.06,10.0,Calm,Calm,-,N/A,,Partly Cloudy,0,2012-04-22 12:51:00
8:51 AM,66.0,52.0,60,30.07,10.0,North,5.8,-,N/A,,Clear,360,2012-04-22 13:51:00
9:51 AM,73.0,51.1,46,30.08,10.0,NE,3.5,-,N/A,,Clear,50,2012-04-22 14:51:00
10:51 AM,75.9,48.0,37,30.12,10.0,Variable,5.8,-,N/A,,Clear,0,2012-04-22 15:51:00
11:51 AM,80.1,46.9,31,30.12,10.0,NE,5.8,-,N/A,,Clear,50,2012-04-22 16:51:00
12:51 PM,81.0,46.0,29,30.10,10.0,Calm,Calm,-,N/A,,Clear,0,2012-04-22 17:51:00
1:51 PM,82.9,46.0,27,30.09,10.0,NNE,8.1,-,N/A,,Clear,20,2012-04-22 18:51:00
2:51 PM,84.0,46.0,26,30.07,10.0,NNE,5.8,-,N/A,,Clear,20,2012-04-22 19:51:00
3:51 PM,84.0,48.9,29,30.04,10.0,ESE,5.8,-,N/A,,Clear,110,2012-04-22 20:51:00
4:51 PM,84.0,48.0,28,30.03,10.0,Variable,3.5,-,N/A,,Clear,0,2012-04-22 21:51:00
5:51 PM,82.9,48.0,29,30.02,10.0,ESE,5.8,-,N/A,,Clear,110,2012-04-22 22:51:00
6:51 PM,82.0,50.0,33,30.02,10.0,East,6.9,-,N/A,,Clear,90,2012-04-22 23:51:00
7:51 PM,77.0,55.0,47,30.04,10.0,SSE,11.5,-,N/A,,Clear,160,2012-04-23 00:51:00
8:51 PM,72.0,55.0,55,30.06,10.0,SSE,8.1,-,N/A,,Clear,160,2012-04-23 01:51:00
9:51 PM,69.1,55.0,61,30.09,10.0,SSE,6.9,-,N/A,,Clear,160,2012-04-23 02:51:00
10:51 PM,66.9,55.0,66,30.09,10.0,South,5.8,-,N/A,,Clear,180,2012-04-23 03:51:00
11:51 PM,64.9,57.0,75,30.08,10.0,South,6.9,-,N/A,,Clear,190,2012-04-23 04:51:00